Weather History for Jefferson, GA

Change the Weather History Date:

Wednesday, December 5, 2012

  Actual Average (KGVL) Record (KGVL)
Temperature  
Mean Temperature 62 °F 46 °F  
Max Temperature 68 °F 55 °F 72 °F (1933)
Min Temperature 55 °F 38 °F 15 °F (1935)
Degree Days  
Heating Degree Days 4 19  
Month to date heating degree days 92  
Since 1 July heating degree days 627  
Growing Degree Days 12 (Base 50)    
Moisture  
Dew Point 46 °F    
Average Humidity 60    
Maximum Humidity 82    
Minimum Humidity 43    
Precipitation  
Precipitation 0.00 in 0.17 in 1.88 in (1945)
Month to date precipitation 0.87  
Year to date precipitation 50.35  
Sea Level Pressure  
Sea Level Pressure 30.17 in    
Wind  
Wind Speed 4 mph (West)    
Max Wind Speed 10 mph    
Max Gust Speed 16 mph    
Visibility 10 miles    
Events Rain    
T = Trace of Precipitation, MM = Missing Value Source: NWS Daily Summary

Daily Weather History Graph

Daily Weather History Graph

Search for Another Location

Airport:

Trip Planner

Search our weather history database for the weather conditions in past years. The results will help you decide how hot, cold, wet, or windy it might be!

Date:

Astronomy

Dec. 05, 2012 Rise Set
Actual Time 7:25 AM EST 5:24 PM EST
Civil Twilight 6:58 AM EST 5:52 PM EST
Nautical Twilight 6:27 AM EST 6:23 PM EST
Astronomical Twilight 5:56 AM EST 6:53 PM EST
Moon 11:59 PM EST (12/5) 12:00 PM EST (12/5)
Length of Visible Light 10h 53m
Length of Day
9h 58m
Waning Gibbous, 60% of the Moon is Illuminated
Dec 5
Waning Gibbous
Dec 6
Last Quarter
Dec 13
New
Dec 20
First Quarter
Dec 28
Full

Hourly Weather History & Observations

Time (EST) Temp. Dew Point Humidity Pressure Visibility Wind Dir Wind Speed Gust Speed Precip Events Conditions
12:15 AM 59.0 °F 44.6 °F 59% 30.21 in 10.0 mi WSW 3.5 mph - N/A   Clear
12:35 AM 59.0 °F 44.6 °F 59% 30.21 in 10.0 mi SW 4.6 mph - N/A   Clear
12:55 AM 59.0 °F 44.6 °F 59% 30.20 in 10.0 mi SW 3.5 mph - N/A   Clear
1:15 AM 59.0 °F 44.6 °F 59% 30.19 in 10.0 mi SW 3.5 mph - N/A   Clear
1:35 AM 59.0 °F 44.6 °F 59% 30.19 in 10.0 mi SW 3.5 mph - N/A   Clear
1:55 AM 57.2 °F 44.6 °F 63% 30.19 in 10.0 mi SW 3.5 mph - N/A   Clear
2:15 AM 57.2 °F 44.6 °F 63% 30.20 in 10.0 mi Calm Calm - N/A   Scattered Clouds
2:35 AM 57.2 °F 44.6 °F 63% 30.20 in 10.0 mi WSW 3.5 mph - N/A   Overcast
2:55 AM 55.4 °F 44.6 °F 67% 30.19 in 10.0 mi Calm Calm - N/A   Scattered Clouds
3:15 AM 55.4 °F 44.6 °F 67% 30.19 in 10.0 mi West 3.5 mph - N/A   Scattered Clouds
3:35 AM 57.2 °F 44.6 °F 63% 30.18 in 10.0 mi West 4.6 mph - N/A   Mostly Cloudy
3:55 AM 59.0 °F 44.6 °F 59% 30.18 in 10.0 mi West 3.5 mph - N/A   Overcast
4:15 AM 59.0 °F 44.6 °F 59% 30.17 in 10.0 mi WSW 3.5 mph - N/A   Mostly Cloudy
4:55 AM 57.2 °F 44.6 °F 63% 30.17 in 10.0 mi Calm Calm - N/A   Overcast
5:15 AM 55.4 °F 44.6 °F 67% 30.17 in 10.0 mi SSW 3.5 mph - N/A   Overcast
5:35 AM 55.4 °F 44.6 °F 67% 30.17 in 10.0 mi SW 3.5 mph - N/A   Overcast
5:55 AM 57.2 °F 44.6 °F 63% 30.18 in 10.0 mi SSW 4.6 mph - N/A   Overcast
6:15 AM 55.4 °F 44.6 °F 67% 30.18 in 10.0 mi SW 5.8 mph - N/A   Overcast
6:35 AM 55.4 °F 44.6 °F 67% 30.18 in 10.0 mi SW 4.6 mph - N/A   Overcast
6:55 AM 55.4 °F 44.6 °F 67% 30.19 in 10.0 mi WSW 3.5 mph - N/A   Overcast
7:15 AM 55.4 °F 44.6 °F 67% 30.19 in 10.0 mi WSW 3.5 mph - N/A   Overcast
7:35 AM 55.4 °F 44.6 °F 67% 30.20 in 10.0 mi WSW 4.6 mph - N/A   Overcast
7:55 AM 57.2 °F 44.6 °F 63% 30.20 in 10.0 mi Calm Calm - N/A   Overcast
9:55 AM 62.6 °F 46.4 °F 55% 30.22 in 10.0 mi West 5.8 mph - N/A   Overcast
10:15 AM 64.4 °F 46.4 °F 52% 30.22 in 10.0 mi WNW 9.2 mph - N/A   Overcast
10:35 AM 64.4 °F 46.4 °F 52% 30.22 in 10.0 mi WNW 6.9 mph - N/A   Overcast
10:55 AM 64.4 °F 48.2 °F 56% 30.21 in 10.0 mi WNW 6.9 mph - N/A   Overcast
11:15 AM 66.2 °F 46.4 °F 49% 30.21 in 10.0 mi WNW 10.4 mph - N/A   Overcast
11:35 AM 66.2 °F 46.4 °F 49% 30.21 in 10.0 mi NW 10.4 mph - N/A   Overcast
11:55 AM 66.2 °F 46.4 °F 49% 30.20 in 10.0 mi NW 10.4 mph 16.1 mph N/A   Overcast
12:15 PM 68.0 °F 44.6 °F 43% 30.18 in 10.0 mi WNW 8.1 mph - N/A   Overcast
12:55 PM 66.2 °F 44.6 °F 46% 30.17 in 10.0 mi NNW 6.9 mph 11.5 mph N/A   Overcast
1:15 PM 66.2 °F 44.6 °F 46% 30.16 in 10.0 mi NW 8.1 mph - N/A   Overcast
1:55 PM 66.2 °F 44.6 °F 46% 30.15 in 10.0 mi WNW 8.1 mph - N/A   Overcast
2:15 PM 66.2 °F 44.6 °F 46% 30.14 in 10.0 mi WNW 10.4 mph - N/A   Overcast
2:35 PM 64.4 °F 44.6 °F 49% 30.13 in 10.0 mi NW 6.9 mph - N/A   Overcast
2:55 PM 64.4 °F 44.6 °F 49% 30.13 in 10.0 mi WNW 10.4 mph - N/A   Overcast
3:15 PM 64.4 °F 44.6 °F 49% 30.13 in 10.0 mi West 5.8 mph - N/A   Overcast
3:35 PM 64.4 °F 44.6 °F 49% 30.13 in 10.0 mi NW 6.9 mph - N/A   Overcast
3:55 PM 64.4 °F 44.6 °F 49% 30.13 in 10.0 mi West 6.9 mph - N/A   Overcast
4:15 PM 64.4 °F 46.4 °F 52% 30.13 in 10.0 mi West 8.1 mph - N/A   Mostly Cloudy
4:35 PM 64.4 °F 46.4 °F 52% 30.12 in 10.0 mi West 5.8 mph - N/A   Clear
4:55 PM 62.6 °F 46.4 °F 55% 30.12 in 10.0 mi West 4.6 mph - N/A   Clear
5:15 PM 62.6 °F 46.4 °F 55% 30.12 in 10.0 mi Calm Calm - N/A   Clear
5:35 PM 62.6 °F 46.4 °F 55% 30.13 in 10.0 mi Calm Calm - N/A   Clear
5:55 PM 62.6 °F 46.4 °F 55% 30.13 in 10.0 mi Calm Calm - N/A   Scattered Clouds
6:15 PM 60.8 °F 46.4 °F 59% 30.13 in 10.0 mi Calm Calm - N/A   Scattered Clouds
6:35 PM 60.8 °F 46.4 °F 59% 30.13 in 10.0 mi Calm Calm - N/A   Scattered Clouds
6:55 PM 60.8 °F 46.4 °F 59% 30.13 in 10.0 mi Calm Calm - N/A   Clear
7:15 PM 60.8 °F 46.4 °F 59% 30.14 in 10.0 mi NW 3.5 mph - N/A   Mostly Cloudy
7:35 PM 60.8 °F 48.2 °F 63% 30.14 in 10.0 mi Calm Calm - N/A   Overcast
7:55 PM 60.8 °F 48.2 °F 63% 30.14 in 10.0 mi Calm Calm - N/A   Mostly Cloudy
8:15 PM 60.8 °F 48.2 °F 63% 30.15 in 10.0 mi Calm Calm - N/A Rain Light Rain
8:35 PM 59.0 °F 51.8 °F 77% 30.15 in 10.0 mi Calm Calm - N/A   Overcast
8:55 PM 59.0 °F 53.6 °F 82% 30.15 in 10.0 mi Calm Calm - N/A   Overcast
9:15 PM 59.0 °F 53.6 °F 82% 30.16 in 10.0 mi Calm Calm - N/A   Overcast
9:35 PM 59.0 °F 53.6 °F 82% 30.16 in 10.0 mi Calm Calm - N/A   Overcast
9:55 PM 59.0 °F 51.8 °F 77% 30.15 in 10.0 mi Calm Calm - N/A   Overcast
10:15 PM 59.0 °F 53.6 °F 82% 30.15 in 10.0 mi NE 3.5 mph - N/A   Overcast
10:35 PM 59.0 °F 50.0 °F 72% 30.16 in 10.0 mi East 5.8 mph - N/A   Overcast
10:55 PM 59.0 °F 44.6 °F 59% 30.16 in 10.0 mi ENE 3.5 mph - N/A   Overcast
11:15 PM 59.0 °F 44.6 °F 59% 30.16 in 10.0 mi Calm Calm - N/A   Overcast
11:35 PM 59.0 °F 44.6 °F 59% 30.16 in 10.0 mi East 4.6 mph - N/A   Overcast
11:55 PM 59.0 °F 44.6 °F 59% 30.16 in 10.0 mi East 4.6 mph - N/A   Overcast